Regional Weather Roundup
Issued by NWS

Home | Current Version | Previous Version | Text Only | Print | Product List | Glossary On
Versions: 1 2 3 4 5 6 7 8 9 10 11 12 13 14 15 16 17 18 19 20 21 22 23 24 25 26 27 28 29 30 31 32 33 34 35 36 37 38 39 40 41 42 43 44 45 46 47 48 49 50
000
ASUS43 KMPX 260510
RWRMN
WEATHER ROUNDUP FOR MINNESOTA
NATIONAL WEATHER SERVICE TWIN CITIES/CHANHASSEN MN
1100 PM CST SUN JAN 25 2015


NOTE: "FAIR" INDICATES FEW OR NO CLOUDS BELOW 12,000 FEET WITH NO
SIGNIFICANT WEATHER AND/OR OBSTRUCTIONS TO VISIBILITY. N/A MEANS
CURRENT SKY AND/OR WEATHER CONDITIONS ARE NOT AVAILABLE.

MNZ060>063-068>070-260600-
   Twin Cities Metro

CITY           SKY/WX    TMP DP  RH WIND       PRES   REMARKS
TWIN CITIES    CLOUDY    22  15  75 S7        30.00F WCI  13
ST PAUL        CLOUDY    22  16  78 S7        30.02F WCI  13
CRYSTAL        CLOUDY    23  16  74 S6        29.98F WCI  16
BLAINE         CLOUDY    25  19  80 S5        29.98F WCI  19
LAKEVILLE      CLOUDY    18  16  93 S6        30.00F WCI   9
EDEN PRAIRIE   CLOUDY    21  16  81 S7        29.98F WCI  12
SOUTH ST PAUL  CLOUDY    23  17  80 S6        30.01S WCI  15
LAKE ELMO      FAIR      21  18  86 S5        30.01S WCI  15
$$
MNZ001>005-007-008-013>017-022>024-027-028-260600-
   Northwest Minnesota

CITY           SKY/WX    TMP DP  RH WIND       PRES   REMARKS
BEMIDJI        CLOUDY    25  18  74 S8        29.76F WCI  16
HALLOCK        CLOUDY    27  21  80 S24G30    29.63F WCI  12
ROSEAU         CLOUDY    25  19  80 S18       29.67F WCI  11
WARROAD        FLURRIES  23  19  86 S9G17     29.66F WCI  13
THIEF RVR FALL CLOUDY    25  19  80 S18G26    29.72F WCI  11
CROOKSTON      CLOUDY    25  21  86 S21       29.74F WCI  10
FOSSTON        CLOUDY    21  18  86 S21       29.76F WCI   6
DETROIT LAKES  CLOUDY    27  19  74 S9        29.83F WCI  17
MOORHEAD       CLOUDY    27  25  93 S13G20    29.82F WCI  16
PARK RAPIDS    CLOUDY    24  18  77 S12       29.81F WCI  13
MAHNOMEN       CLOUDY    24  19  81 S17       29.78F WCI  10
$$
MNZ006-009>011-018-025>026-260600-
   North Central Minnesota

CITY           SKY/WX    TMP DP  RH WIND       PRES   REMARKS
BAUDETTE       LGT SNOW  21  18  88 S13       29.68F FOG     WCI   9
FLAG ISLAND    FLURRIES  19  18  93 S16       29.64F WCI   5
INTL FALLS     CLOUDY    23  14  68 S8        29.76F WCI  14
WASKISH        LGT SNOW  25  19  80 S7        29.74F WCI  17
BIG FORK       CLOUDY    23  16  74 S10G16    29.79F WCI  12
LONGVILLE      CLOUDY    23  18  80 S7        29.84F WCI  15
GRAND RAPIDS   CLOUDY    21  14  73 S13       29.83F WCI   9
CRANE LAKE     CLOUDY    18  12  79 S6        29.84F WCI   9
ORR            CLOUDY    19  12  73 S8        29.79F WCI   9
COOK           CLOUDY    18  14  86 S7        29.83F WCI   8
WALKER         CLOUDY    24  19  81 S6        29.80F WCI  17
$$
MNZ012-019>021-037-260600-
   Northeast Minnesota

CITY           SKY/WX    TMP DP  RH WIND       PRES   REMARKS
DULUTH         CLOUDY    18  10  71 S7        29.89F WCI   9
ELY            CLOUDY    16  12  86 S7        29.85F WCI   6
HIBBING        CLOUDY    20  12  71 S7        29.85F WCI  11
EVELETH        CLOUDY    19  14  79 S8        29.87F WCI   9
DULUTH HARBOR  CLOUDY    19  12  73 CALM      29.96F
TWO HARBORS    CLOUDY    19  16  86 CALM      29.90F
SILVER BAY     CLOUDY    18  16  93 CALM      29.90F
GRAND MARAIS     N/A     23  16  74 S12       29.95F WCI  12
G MARAIS ARPRT FLURRIES  12   9  85 SE5       29.86F WCI   4
$$
MNZ029>031-032-039>041-046>048-054>057-064-260600-
   West Central Minnesota

CITY           SKY/WX    TMP DP  RH WIND       PRES   REMARKS
FERGUS FALLS   CLOUDY    25  21  86 S10       29.88F WCI  15
WHEATON        MOCLDY    25  23  93 S10       29.89F WCI  15
MORRIS         CLOUDY    27  25  93 S8        29.89F WCI  18
ALEXANDRIA     CLOUDY    25  22  88 S9        29.89F WCI  15
ELBOW LAKE     CLOUDY    25  23  91 S10       29.88F WCI  15
WADENA         CLOUDY    23  19  86 S9        29.85F WCI  13
GLENWOOD       MOCLDY    27  25  93 S8        29.92S WCI  18
APPLETON       CLOUDY    30  27  86 S8        29.90F WCI  23
BENSON         CLOUDY    28  25  86 S8        29.91F WCI  20
ORTONVILLE     CLOUDY    28  25  86 S8        29.89F WCI  20
MADISON        CLOUDY    34  32  93 S6        29.91F WCI  29
WILLMAR        CLOUDY    30  27  86 S3        29.95F
$$
MNZ033>034-036-042>043-049>051-058-059-260600-
   Central Minnesota

CITY           SKY/WX    TMP DP  RH WIND       PRES   REMARKS
ST CLOUD       MOCLDY    23  17  78 S8        29.94F WCI  14
SAUK CENTRE    CLOUDY    26  23  91 S7        29.94R WCI  18
PAYNESVILLE    CLOUDY    24  22  92 SE10      29.93F WCI  13
AITKIN         CLOUDY    25  16  68 S6        29.88F WCI  18
PINE RIVER     CLOUDY    25  19  80 S7        29.89F WCI  17
BRAINERD       CLOUDY    24  17  74 S9        29.89F WCI  14
STAPLES        CLOUDY    25  21  86 S10       29.86F WCI  15
LONG PRAIRIE   CLOUDY    27  23  86 S8        29.93R WCI  18
LITTLE FALLS   CLOUDY    25  19  80 S5        29.93S WCI  19
LITCHFIELD     MOCLDY    27  25  93 CALM      29.94F
BUFFALO        CLOUDY    23  17  77 S5        29.96F WCI  17
MAPLE LAKE     MOCLDY    24  19  83 S5        29.95F WCI  18
$$
MNZ037-044-045-052-053-260600-
   East Central Minnesota

CITY           SKY/WX    TMP DP  RH WIND       PRES   REMARKS
PRINCETON      CLOUDY    25  18  74 S5        29.95F WCI  19
MORA           CLOUDY    21  16  79 S6        29.96F WCI  14
CAMBRIDGE      CLOUDY    25  14  63 S8        29.95F WCI  16
RUSH CITY      CLOUDY    21  14  72 S5        29.97F WCI  15
MOOSE LAKE     CLOUDY    21  12  68 S3        29.92F
HINCKLEY       MOCLDY    23  18  80 S7        29.94F WCI  15
CLOQUET        CLOUDY    18  12  79 S5        29.90F WCI  11
MCGREGOR       CLOUDY    21  18  86 S6        29.90F WCI  14
$$
MNZ071>073-080-081-089-090-097-098-260600-
   Southwest Minnesota

CITY           SKY/WX    TMP DP  RH WIND       PRES   REMARKS
MONTEVIDEO     MOCLDY    28  28 100 SW6       29.93F WCI  22
GRANITE FALLS  CLOUDY    30  28  93 S3        29.94F
CANBY          CLOUDY    32  30  92 SW9       29.92F WCI  24
MARSHALL       CLOUDY    30  28  93 W5        29.94F WCI  25
REDWOOD FALLS  CLOUDY    30  28  92 S8        29.95F WCI  22
OLIVIA         CLOUDY    28  27  93 S6        29.94F WCI  22
PIPESTONE      CLOUDY    32  30  93 SW8       29.93F WCI  25
WINDOM         CLOUDY    28  28 100 S6        29.96F WCI  22
WORTHINGTON    CLOUDY    32  28  86 SW8       29.98S WCI  25
JACKSON        CLOUDY    30  28  93 S7        29.99S WCI  23
TRACY          CLOUDY    31  30  94 SW9       29.95F WCI  23
SLAYTON        CLOUDY    32  30  93 W12       29.97F WCI  23
$$
MNZ065>067-074>077-082>085-091>093-260600-
   South Central Minnesota

CITY           SKY/WX    TMP DP  RH WIND       PRES   REMARKS
MANKATO        CLOUDY    25  19  80 S5        30.00S WCI  19
NEW ULM        MOCLDY    27  23  86 S7        29.98F WCI  19
ST JAMES       MOCLDY    30  27  86 S8        30.00S WCI  23
FAIRMONT       CLOUDY    28  23  80 S6        29.99F WCI  22
GLENCOE        CLOUDY    25  22  87 S3        29.97F
FARIBAULT      MOCLDY    19  18  93 CALM      30.01S
OWATONNA       MOCLDY    21  18  86 S6        30.00F WCI  14
WASECA         CLOUDY    25  21  86 SE3       30.02F
ALBERT LEA     MOCLDY    21  19  93 CALM      30.01S
$$
MNZ078>079-086>088-094>096-260600-
   Southeast Minnesota

CITY           SKY/WX    TMP DP  RH WIND       PRES   REMARKS
ROCHESTER      CLOUDY    23  18  81 SW9       29.99F WCI  13
RED WING       PTCLDY    16  10  79 CALM      30.02S
STANTON        MOCLDY    21  17  86 S3        30.00S
DODGE CENTER   MOCLDY    21  19  93 SW5       29.99S WCI  15
WINONA         MOCLDY    19  16  86 CALM      30.04F
AUSTIN         MOCLDY    25  19  80 SW6       30.00F WCI  18
PRESTON        CLOUDY    24  19  81 CALM      30.00F
$$
ABBREVIATIONS USED IN REMARKS
   TC - TEMPERATURES IN CELSIUS
  WCI - WIND CHILL INDEX
   HX - HEAT INDEX
  VSB - VISIBILITY
$$


USA.gov is the U.S. government's official web portal to all federal, state and local government web resources and services.